Time,TemperatureF,DewpointF,PressureIn,WindDirection,WindDirectionDegrees,WindSpeedMPH,WindSpeedGustMPH,Humidity,HourlyPrecipIn,Conditions,Clouds,dailyrainin,SolarRadiationWatts/m^2,SoftwareType,DateUTC
2013-06-11 00:22:00,63.0,33.0,-100.00,West,280,6.0,16.0,33,0.00,,,0.00,1.000000,,2013-06-11 07:22:00,
2013-06-11 00:32:00,63.0,33.0,-100.00,West,280,6.0,16.0,33,0.00,,,0.00,1.000000,,2013-06-11 07:32:00,
2013-06-11 00:42:00,63.0,33.0,-100.00,West,280,6.0,16.0,33,0.00,,,0.00,1.000000,,2013-06-11 07:42:00,
2013-06-11 00:52:00,63.0,33.0,-100.00,West,280,6.0,16.0,33,0.00,,,0.00,1.000000,,2013-06-11 07:52:00,
2013-06-11 01:22:00,63.0,31.0,-100.00,North,350,4.0,12.0,30,0.00,,,0.00,1.000000,,2013-06-11 08:22:00,
2013-06-11 01:32:00,63.0,31.0,-100.00,North,350,4.0,12.0,30,0.00,,,0.00,1.000000,,2013-06-11 08:32:00,
2013-06-11 01:42:00,63.0,31.0,-100.00,North,350,4.0,12.0,30,0.00,,,0.00,1.000000,,2013-06-11 08:42:00,
2013-06-11 01:52:00,63.0,31.0,-100.00,North,350,4.0,12.0,30,0.00,,,0.00,1.000000,,2013-06-11 08:52:00,
2013-06-11 02:22:00,59.0,37.0,-100.00,SW,218,4.0,10.0,43,0.00,,,0.00,1.000000,,2013-06-11 09:22:00,
2013-06-11 02:33:00,59.0,37.0,-100.00,SW,218,4.0,10.0,43,0.00,,,0.00,1.000000,,2013-06-11 09:33:00,
2013-06-11 02:43:00,59.0,37.0,-100.00,SW,218,4.0,10.0,43,0.00,,,0.00,1.000000,,2013-06-11 09:43:00,
2013-06-11 02:53:00,59.0,37.0,-100.00,SW,218,4.0,10.0,43,0.00,,,0.00,1.000000,,2013-06-11 09:53:00,
2013-06-11 03:22:00,58.0,42.0,-100.00,SSW,196,7.0,10.0,55,0.00,,,0.00,1.000000,,2013-06-11 10:22:00,
2013-06-11 03:33:00,58.0,42.0,-100.00,SSW,196,7.0,10.0,55,0.00,,,0.00,1.000000,,2013-06-11 10:33:00,
2013-06-11 03:42:00,58.0,42.0,-100.00,SSW,196,7.0,10.0,55,0.00,,,0.00,1.000000,,2013-06-11 10:42:00,
2013-06-11 03:52:00,58.0,42.0,-100.00,SSW,196,7.0,10.0,55,0.00,,,0.00,1.000000,,2013-06-11 10:52:00,
2013-06-11 04:22:00,65.0,37.0,-100.00,NW,320,6.0,12.0,35,0.00,,,-99.99,1.000000,,2013-06-11 11:22:00,
2013-06-11 04:32:00,65.0,37.0,-100.00,NW,320,6.0,12.0,35,0.00,,,-99.99,1.000000,,2013-06-11 11:32:00,
2013-06-11 04:41:00,65.0,37.0,-100.00,NW,320,6.0,12.0,35,0.00,,,-99.99,1.000000,,2013-06-11 11:41:00,
2013-06-11 04:52:00,65.0,37.0,-100.00,NW,320,6.0,12.0,35,0.00,,,-99.99,1.000000,,2013-06-11 11:52:00,
2013-06-11 05:22:00,66.0,31.0,-100.00,WNW,284,6.0,10.0,27,0.00,,,-99.99,1.000000,,2013-06-11 12:22:00,
2013-06-11 05:32:00,66.0,31.0,-100.00,WNW,284,6.0,10.0,27,0.00,,,-99.99,1.000000,,2013-06-11 12:32:00,
2013-06-11 05:42:00,66.0,31.0,-100.00,WNW,284,6.0,10.0,27,0.00,,,-99.99,1.000000,,2013-06-11 12:42:00,
2013-06-11 05:52:00,66.0,31.0,-100.00,WNW,284,6.0,10.0,27,0.00,,,-99.99,1.000000,,2013-06-11 12:52:00,
2013-06-11 06:22:00,67.0,32.0,-100.00,WNW,283,5.0,10.0,27,0.00,,,0.00,5.000000,,2013-06-11 13:22:00,
2013-06-11 06:32:00,67.0,32.0,-100.00,WNW,283,5.0,10.0,27,0.00,,,0.00,5.000000,,2013-06-11 13:32:00,
2013-06-11 06:42:00,67.0,32.0,-100.00,WNW,283,5.0,10.0,27,0.00,,,0.00,5.000000,,2013-06-11 13:42:00,
2013-06-11 06:52:00,67.0,32.0,-100.00,WNW,283,5.0,10.0,27,0.00,,,0.00,5.000000,,2013-06-11 13:52:00,
2013-06-11 07:22:00,65.0,34.0,-100.00,SW,223,4.0,10.0,32,0.00,,,0.00,30.000000,,2013-06-11 14:22:00,
2013-06-11 07:32:00,65.0,34.0,-100.00,SW,223,4.0,10.0,32,0.00,,,0.00,30.000000,,2013-06-11 14:32:00,
2013-06-11 07:42:00,65.0,34.0,-100.00,SW,223,4.0,10.0,32,0.00,,,0.00,30.000000,,2013-06-11 14:42:00,
2013-06-11 07:52:00,65.0,34.0,-100.00,SW,223,4.0,10.0,32,0.00,,,0.00,30.000000,,2013-06-11 14:52:00,
2013-06-11 08:22:00,67.0,36.0,-100.00,SW,214,7.0,12.0,32,0.00,,,0.00,157.000000,,2013-06-11 15:22:00,
2013-06-11 08:33:00,67.0,36.0,-100.00,SW,214,7.0,12.0,32,0.00,,,0.00,157.000000,,2013-06-11 15:33:00,
2013-06-11 08:42:00,67.0,36.0,-100.00,SW,214,7.0,12.0,32,0.00,,,0.00,157.000000,,2013-06-11 15:42:00,
2013-06-11 08:53:00,67.0,36.0,-100.00,SW,214,7.0,12.0,32,0.00,,,0.00,157.000000,,2013-06-11 15:53:00,
2013-06-11 10:22:00,78.0,39.0,-100.00,South,181,7.0,11.0,25,-99.99,,,0.00,107.000000,,2013-06-11 17:22:00,
2013-06-11 10:32:00,78.0,39.0,-100.00,South,181,7.0,11.0,25,-99.99,,,0.00,107.000000,,2013-06-11 17:32:00,
2013-06-11 10:43:00,78.0,39.0,-100.00,South,181,7.0,11.0,25,-99.99,,,0.00,107.000000,,2013-06-11 17:43:00,
2013-06-11 10:52:00,78.0,39.0,-100.00,South,181,7.0,11.0,25,-99.99,,,0.00,107.000000,,2013-06-11 17:52:00,
2013-06-11 11:22:00,79.0,41.0,-100.00,South,174,11.0,16.0,26,0.00,,,0.00,735.000000,,2013-06-11 18:22:00,
2013-06-11 11:32:00,79.0,41.0,-100.00,South,174,11.0,16.0,26,0.00,,,0.00,735.000000,,2013-06-11 18:32:00,
2013-06-11 11:42:00,79.0,41.0,-100.00,South,174,11.0,16.0,26,0.00,,,0.00,735.000000,,2013-06-11 18:42:00,
2013-06-11 11:52:00,79.0,41.0,-100.00,South,174,11.0,16.0,26,0.00,,,0.00,735.000000,,2013-06-11 18:52:00,
2013-06-11 12:22:00,82.0,41.0,-100.00,South,185,13.0,19.0,23,0.00,,,-99.99,687.000000,,2013-06-11 19:22:00,
2013-06-11 12:32:00,82.0,41.0,-100.00,South,185,13.0,19.0,23,0.00,,,-99.99,687.000000,,2013-06-11 19:32:00,
2013-06-11 12:42:00,82.0,41.0,-100.00,South,185,13.0,19.0,23,0.00,,,-99.99,687.000000,,2013-06-11 19:42:00,
2013-06-11 12:52:00,82.0,41.0,-100.00,South,185,13.0,19.0,23,0.00,,,-99.99,687.000000,,2013-06-11 19:52:00,
2013-06-11 13:22:00,85.0,37.0,-100.00,South,180,15.0,26.0,18,0.00,,,0.00,1183.000000,,2013-06-11 20:22:00,
2013-06-11 13:32:00,85.0,37.0,-100.00,South,180,15.0,26.0,18,0.00,,,0.00,1183.000000,,2013-06-11 20:32:00,
2013-06-11 13:42:00,85.0,37.0,-100.00,South,180,15.0,26.0,18,0.00,,,0.00,1183.000000,,2013-06-11 20:42:00,
2013-06-11 13:52:00,85.0,37.0,-100.00,South,180,15.0,26.0,18,0.00,,,0.00,1183.000000,,2013-06-11 20:52:00,
2013-06-11 14:22:00,84.0,39.0,-100.00,South,178,18.0,27.0,20,0.00,,,0.00,1074.000000,,2013-06-11 21:22:00,
2013-06-11 14:33:00,84.0,39.0,-100.00,South,178,18.0,27.0,20,0.00,,,0.00,1074.000000,,2013-06-11 21:33:00,
2013-06-11 14:42:00,84.0,39.0,-100.00,South,178,18.0,27.0,20,0.00,,,0.00,1074.000000,,2013-06-11 21:42:00,
2013-06-11 14:52:00,84.0,39.0,-100.00,South,178,18.0,27.0,20,0.00,,,0.00,1074.000000,,2013-06-11 21:52:00,
2013-06-11 15:22:00,83.0,36.0,-100.00,South,188,17.0,28.0,19,0.00,,,0.00,1056.000000,,2013-06-11 22:22:00,
2013-06-11 15:32:00,83.0,36.0,-100.00,South,188,17.0,28.0,19,0.00,,,0.00,1056.000000,,2013-06-11 22:32:00,
2013-06-11 15:42:00,83.0,36.0,-100.00,South,188,17.0,28.0,19,0.00,,,0.00,1056.000000,,2013-06-11 22:42:00,
2013-06-11 15:52:00,83.0,36.0,-100.00,South,188,17.0,28.0,19,0.00,,,0.00,1056.000000,,2013-06-11 22:52:00,
2013-06-11 16:22:00,82.0,39.0,-100.00,South,186,17.0,30.0,22,0.00,,,-99.99,817.000000,,2013-06-11 23:22:00,
2013-06-11 16:32:00,82.0,39.0,-100.00,South,186,17.0,30.0,22,0.00,,,-99.99,817.000000,,2013-06-11 23:32:00,
2013-06-11 16:42:00,82.0,39.0,-100.00,South,186,17.0,30.0,22,0.00,,,-99.99,817.000000,,2013-06-11 23:42:00,
2013-06-11 16:52:00,82.0,39.0,-100.00,South,186,17.0,30.0,22,0.00,,,-99.99,817.000000,,2013-06-11 23:52:00,
2013-06-11 17:22:00,78.0,43.0,-100.00,SSW,194,13.0,24.0,29,0.00,,,0.00,522.000000,,2013-06-12 00:22:00,
2013-06-11 17:32:00,78.0,43.0,-100.00,SSW,194,13.0,24.0,29,0.00,,,0.00,522.000000,,2013-06-12 00:32:00,
2013-06-11 17:42:00,78.0,43.0,-100.00,SSW,194,13.0,24.0,29,0.00,,,0.00,522.000000,,2013-06-12 00:42:00,
2013-06-11 17:52:00,78.0,43.0,-100.00,SSW,194,13.0,24.0,29,0.00,,,0.00,522.000000,,2013-06-12 00:52:00,
2013-06-11 18:22:00,75.0,43.0,-100.00,South,184,16.0,23.0,32,0.00,,,-99.99,469.000000,,2013-06-12 01:22:00,
2013-06-11 18:32:00,75.0,43.0,-100.00,South,184,16.0,23.0,32,0.00,,,-99.99,469.000000,,2013-06-12 01:32:00,
2013-06-11 18:42:00,75.0,43.0,-100.00,South,184,16.0,23.0,32,0.00,,,-99.99,469.000000,,2013-06-12 01:42:00,
2013-06-11 18:52:00,75.0,43.0,-100.00,South,184,16.0,23.0,32,0.00,,,-99.99,469.000000,,2013-06-12 01:52:00,
2013-06-11 19:22:00,70.0,41.0,-100.00,South,185,16.0,22.0,35,0.00,,,0.00,244.000000,,2013-06-12 02:22:00,
2013-06-11 19:32:00,70.0,41.0,-100.00,South,185,16.0,22.0,35,0.00,,,0.00,244.000000,,2013-06-12 02:32:00,
2013-06-11 19:42:00,70.0,41.0,-100.00,South,185,16.0,22.0,35,0.00,,,0.00,244.000000,,2013-06-12 02:42:00,
2013-06-11 19:52:00,70.0,41.0,-100.00,South,185,16.0,22.0,35,0.00,,,0.00,244.000000,,2013-06-12 02:52:00,
2013-06-11 20:22:00,66.0,42.0,-100.00,South,178,14.0,23.0,42,0.00,,,0.00,64.000000,,2013-06-12 03:22:00,
2013-06-11 20:32:00,66.0,42.0,-100.00,South,178,14.0,23.0,42,0.00,,,0.00,64.000000,,2013-06-12 03:32:00,
2013-06-11 20:42:00,66.0,42.0,-100.00,South,178,14.0,23.0,42,0.00,,,0.00,64.000000,,2013-06-12 03:42:00,
2013-06-11 20:53:00,66.0,42.0,-100.00,South,178,14.0,23.0,42,0.00,,,0.00,64.000000,,2013-06-12 03:53:00,
2013-06-11 21:23:00,67.0,40.0,-100.00,SSW,194,14.0,18.0,37,0.00,,,0.00,3.000000,,2013-06-12 04:23:00,
2013-06-11 21:33:00,67.0,40.0,-100.00,SSW,194,14.0,18.0,37,0.00,,,0.00,3.000000,,2013-06-12 04:33:00,
2013-06-11 21:42:00,67.0,40.0,-100.00,SSW,194,14.0,18.0,37,0.00,,,0.00,3.000000,,2013-06-12 04:42:00,
2013-06-11 21:52:00,67.0,40.0,-100.00,SSW,194,14.0,18.0,37,0.00,,,0.00,3.000000,,2013-06-12 04:52:00,
2013-06-11 22:22:00,68.0,35.0,-100.00,SSW,195,14.0,19.0,29,0.00,,,0.00,1.000000,,2013-06-12 05:22:00,
2013-06-11 22:32:00,68.0,35.0,-100.00,SSW,195,14.0,19.0,29,0.00,,,0.00,1.000000,,2013-06-12 05:32:00,
2013-06-11 22:42:00,68.0,35.0,-100.00,SSW,195,14.0,19.0,29,0.00,,,0.00,1.000000,,2013-06-12 05:42:00,
2013-06-11 22:52:00,68.0,35.0,-100.00,SSW,195,14.0,19.0,29,0.00,,,0.00,1.000000,,2013-06-12 05:52:00,
2013-06-11 23:22:00,70.0,23.0,-100.00,SSW,199,15.0,19.0,17,0.00,,,0.00,1.000000,,2013-06-12 06:22:00,
2013-06-11 23:32:00,70.0,23.0,-100.00,SSW,199,15.0,19.0,17,0.00,,,0.00,1.000000,,2013-06-12 06:32:00,
2013-06-11 23:42:00,70.0,23.0,-100.00,SSW,199,15.0,19.0,17,0.00,,,0.00,1.000000,,2013-06-12 06:42:00,
2013-06-11 23:52:00,70.0,23.0,-100.00,SSW,199,15.0,19.0,17,0.00,,,0.00,1.000000,,2013-06-12 06:52:00,